| time (UTC) | temp F | wind direction | speed MPH | gust MPH | rain 1hr in | rain 24hr in | rain mn in | humidity % | barometer mb |
| 20260504081516 | 47 | 247 | 2.0 | 3.0 | 0.00 | 0.00 | 0.00 | 38 | 1004.0 |
| 20260504081017 | 47 | 247 | 1.0 | 2.0 | 0.00 | 0.00 | 0.00 | 38 | 1004.1 |
| 20260504080517 | 47 | 247 | 1.0 | 2.0 | 0.00 | 0.00 | 0.00 | 38 | 1004.3 |
| 20260504050519 | 54 | 292 | 1.0 | 3.0 | 0.00 | 0.00 | 0.00 | 37 | 1005.1 |
| 20260504050018 | 55 | 315 | 1.0 | 3.0 | 0.00 | 0.00 | 0.00 | 36 | 1005.3 |
| 20260504045517 | 56 | 315 | 2.0 | 6.0 | 0.00 | 0.00 | 0.00 | 35 | 1005.3 |
| 20260504045017 | 57 | 292 | 3.0 | 5.0 | 0.00 | 0.00 | 0.00 | 33 | 1005.4 |
| 20260504044537 | 58 | 315 | 3.0 | 7.0 | 0.00 | 0.00 | 0.00 | 30 | 1005.5 |
| 20260504044017 | 59 | 315 | 4.0 | 7.0 | 0.00 | 0.00 | 0.00 | 29 | 1005.3 |
| 20260504043538 | 59 | 292 | 3.0 | 7.0 | 0.00 | 0.00 | 0.00 | 29 | 1005.4 |
| 20260504043017 | 59 | 315 | 4.0 | 8.0 | 0.00 | 0.00 | 0.00 | 28 | 1005.4 |
| 20260504042518 | 60 | 292 | 4.0 | 8.0 | 0.00 | 0.00 | 0.00 | 27 | 1005.4 |
| 20260504042017 | 60 | 270 | 4.0 | 8.0 | 0.00 | 0.00 | 0.00 | 27 | 1005.3 |
| 20260504041515 | 62 | 270 | 6.0 | 10.0 | 0.00 | 0.00 | 0.00 | 27 | 1005.5 |
| 20260504041018 | 62 | 247 | 8.0 | 11.0 | 0.00 | 0.00 | 0.00 | 26 | 1005.1 |
| 20260504040517 | 62 | 247 | 8.0 | 11.0 | 0.00 | 0.00 | 0.00 | 26 | 1005.2 |
| 20260504040017 | 62 | 247 | 7.0 | 10.0 | 0.00 | 0.00 | 0.00 | 26 | 1005.3 |
| 20260504035517 | 62 | 247 | 8.0 | 11.0 | 0.00 | 0.00 | 0.00 | 26 | 1005.3 |
| 20260504035017 | 62 | 247 | 7.0 | 10.0 | 0.00 | 0.00 | 0.00 | 26 | 1005.3 |
| 20260504034538 | 62 | 247 | 7.0 | 11.0 | 0.00 | 0.00 | 0.00 | 27 | 1005.2 |
| 20260504034017 | 61 | 247 | 8.0 | 12.0 | 0.00 | 0.00 | 0.00 | 27 | 1005.3 |
| 20260504033557 | 61 | 247 | 8.0 | 11.0 | 0.00 | 0.00 | 0.00 | 28 | 1005.3 |
| 20260504033017 | 60 | 225 | 6.0 | 10.0 | 0.00 | 0.00 | 0.00 | 29 | 1005.2 |
| 20260504032517 | 59 | 225 | 5.0 | 8.0 | 0.00 | 0.00 | 0.00 | 29 | 1005.1 |
| 20260504032017 | 58 | 225 | 4.0 | 6.0 | 0.00 | 0.00 | 0.00 | 29 | 1005.2 |
| 20260504031537 | 57 | 202 | 2.0 | 5.0 | 0.00 | 0.00 | 0.00 | 30 | 1005.1 |
| 20260504031037 | 59 | 225 | 3.0 | 4.0 | 0.00 | 0.00 | 0.00 | 28 | 1005.2 |
| 20260504030517 | 59 | 225 | 3.0 | 4.0 | 0.00 | 0.00 | 0.00 | 28 | 1005.1 |
| 20260504030017 | 59 | 202 | 3.0 | 4.0 | 0.00 | 0.00 | 0.00 | 28 | 1005.1 |
| 20260504025537 | 61 | 202 | 4.0 | 6.0 | 0.00 | 0.00 | 0.00 | 27 | 1005.1 |
| 20260504025017 | 62 | 225 | 5.0 | 6.0 | 0.00 | 0.00 | 0.00 | 26 | 1005.1 |
| 20260504024517 | 62 | 225 | 5.0 | 7.0 | 0.00 | 0.00 | 0.00 | 26 | 1005.1 |
| 20260504024017 | 62 | 225 | 6.0 | 7.0 | 0.00 | 0.00 | 0.00 | 26 | 1005.0 |
| 20260504023517 | 63 | 225 | 6.0 | 7.0 | 0.00 | 0.00 | 0.00 | 26 | 1004.9 |
| 20260504023017 | 63 | 225 | 6.0 | 8.0 | 0.00 | 0.00 | 0.00 | 26 | 1004.9 |
| 20260504022517 | 63 | 225 | 6.0 | 7.0 | 0.00 | 0.00 | 0.00 | 26 | 1004.9 |
| 20260504022017 | 64 | 225 | 5.0 | 7.0 | 0.00 | 0.00 | 0.00 | 25 | 1004.8 |
| 20260504021517 | 64 | 225 | 6.0 | 8.0 | 0.00 | 0.00 | 0.00 | 25 | 1004.9 |
| 20260504021017 | 64 | 225 | 6.0 | 8.0 | 0.00 | 0.00 | 0.00 | 25 | 1004.9 |
| 20260504020517 | 64 | 225 | 7.0 | 9.0 | 0.00 | 0.00 | 0.00 | 26 | 1004.9 |
| 20260504020018 | 64 | 225 | 6.0 | 8.0 | 0.00 | 0.00 | 0.00 | 26 | 1004.8 |
| 20260504015517 | 64 | 225 | 5.0 | 7.0 | 0.00 | 0.00 | 0.00 | 26 | 1004.7 |
| 20260504015017 | 65 | 225 | 5.0 | 7.0 | 0.00 | 0.00 | 0.00 | 25 | 1004.7 |
| 20260504014517 | 65 | 225 | 5.0 | 8.0 | 0.00 | 0.00 | 0.00 | 25 | 1004.8 |
| 20260504014017 | 66 | 225 | 5.0 | 8.0 | 0.00 | 0.00 | 0.00 | 25 | 1004.7 |
| 20260504013517 | 66 | 225 | 6.0 | 10.0 | 0.00 | 0.00 | 0.00 | 24 | 1004.7 |
| 20260504013017 | 67 | 225 | 6.0 | 9.0 | 0.00 | 0.00 | 0.00 | 24 | 1004.7 |
| 20260504012517 | 67 | 225 | 7.0 | 9.0 | 0.00 | 0.00 | 0.00 | 24 | 1004.6 |
| 20260504012018 | 67 | 225 | 7.0 | 10.0 | 0.00 | 0.00 | 0.00 | 24 | 1004.6 |
| 20260504011517 | 68 | 225 | 7.0 | 12.0 | 0.00 | 0.00 | 0.00 | 23 | 1004.6 |
| 20260504011017 | 68 | 225 | 8.0 | 11.0 | 0.00 | 0.00 | 0.00 | 23 | 1004.6 |
| 20260504010537 | 68 | 225 | 10.0 | 14.0 | 0.00 | 0.00 | 0.00 | 23 | 1004.8 |
| 20260504010017 | 68 | 225 | 11.0 | 14.0 | 0.00 | 0.00 | 0.00 | 23 | 1004.8 |
| 20260504005517 | 68 | 225 | 11.0 | 16.0 | 0.00 | 0.00 | 0.00 | 23 | 1004.7 |
| 20260504005017 | 68 | 225 | 9.0 | 14.0 | 0.00 | 0.00 | 0.00 | 23 | 1004.7 |
| 20260504004517 | 69 | 202 | 9.0 | 12.0 | 0.00 | 0.00 | 0.00 | 22 | 1004.4 |
| 20260504004017 | 69 | 202 | 7.0 | 10.0 | 0.00 | 0.00 | 0.00 | 23 | 1004.3 |
| 20260504003517 | 69 | 202 | 8.0 | 11.0 | 0.00 | 0.00 | 0.00 | 22 | 1004.3 |
| 20260504003017 | 69 | 202 | 9.0 | 12.0 | 0.00 | 0.00 | 0.00 | 22 | 1004.2 |
| 20260504002517 | 69 | 225 | 9.0 | 14.0 | 0.00 | 0.00 | 0.00 | 22 | 1004.4 |
| 20260504002017 | 70 | 225 | 11.0 | 15.0 | 0.00 | 0.00 | 0.00 | 22 | 1004.6 |
| 20260504001517 | 70 | 225 | 9.0 | 14.0 | 0.00 | 0.00 | 0.00 | 22 | 1004.7 |
| 20260504001017 | 70 | 225 | 8.0 | 13.0 | 0.00 | 0.00 | 0.00 | 22 | 1004.7 |
| 20260504000517 | 70 | 202 | 8.0 | 11.0 | 0.00 | 0.00 | 0.00 | 21 | 1004.7 |
| 20260504000017 | 70 | 202 | 7.0 | 10.0 | 0.00 | 0.00 | 0.00 | 20 | 1004.6 |
| 20260503235537 | 70 | 180 | 7.0 | 11.0 | 0.00 | 0.00 | 0.00 | 20 | 1004.6 |
| 20260503235057 | 70 | 180 | 7.0 | 12.0 | 0.00 | 0.00 | 0.00 | 20 | 1004.8 |
| 20260503234517 | 70 | 225 | 7.0 | 14.0 | 0.00 | 0.00 | 0.00 | 21 | 1004.9 |
| 20260503234017 | 69 | 225 | 12.0 | 17.0 | 0.00 | 0.00 | 0.00 | 22 | 1005.0 |
| 20260503233537 | 69 | 225 | 13.0 | 19.0 | 0.00 | 0.00 | 0.00 | 21 | 1005.0 |
| 20260503233017 | 69 | 202 | 11.0 | 17.0 | 0.00 | 0.00 | 0.00 | 20 | 1005.0 |
| 20260503232537 | 69 | 202 | 9.0 | 15.0 | 0.00 | 0.00 | 0.00 | 19 | 1004.8 |
| 20260503232016 | 69 | 247 | 14.0 | 29.0 | 0.00 | 0.00 | 0.00 | 19 | 1005.0 |
| 20260503231517 | 69 | 247 | 11.0 | 18.0 | 0.00 | 0.00 | 0.00 | 19 | 1004.8 |
| 20260503231017 | 69 | 225 | 6.0 | 11.0 | 0.00 | 0.00 | 0.00 | 20 | 1004.8 |
| 20260503230517 | 70 | 0 | 11.0 | 33.0 | 0.00 | 0.00 | 0.00 | 19 | 1004.8 |
| 20260503230017 | 70 | 247 | 10.0 | 30.0 | 0.00 | 0.00 | 0.00 | 19 | 1004.6 |
| 20260503225517 | 70 | 225 | 8.0 | 13.0 | 0.00 | 0.00 | 0.00 | 19 | 1004.3 |
| 20260503225017 | 69 | 225 | 8.0 | 12.0 | 0.00 | 0.00 | 0.00 | 20 | 1004.3 |
| 20260503224517 | 69 | 225 | 13.0 | 19.0 | 0.00 | 0.00 | 0.00 | 21 | 1004.2 |
| 20260503224016 | 69 | 225 | 11.0 | 21.0 | 0.00 | 0.00 | 0.00 | 21 | 1004.5 |
| 20260503223516 | 70 | 247 | 10.0 | 17.0 | 0.00 | 0.00 | 0.00 | 20 | 1004.6 |
| 20260503223017 | 70 | 225 | 13.0 | 18.0 | 0.00 | 0.00 | 0.00 | 21 | 1004.7 |
| 20260503222516 | 71 | 225 | 8.0 | 13.0 | 0.00 | 0.00 | 0.00 | 20 | 1004.8 |
| 20260503222017 | 71 | 225 | 8.0 | 14.0 | 0.00 | 0.00 | 0.00 | 19 | 1004.7 |
| 20260503221516 | 71 | 225 | 9.0 | 12.0 | 0.00 | 0.00 | 0.00 | 18 | 1004.5 |
| 20260503221016 | 71 | 202 | 10.0 | 14.0 | 0.00 | 0.00 | 0.00 | 18 | 1004.7 |
| 20260503220516 | 71 | 202 | 11.0 | 16.0 | 0.00 | 0.00 | 0.00 | 17 | 1004.7 |
| 20260503220036 | 71 | 225 | 14.0 | 21.0 | 0.00 | 0.00 | 0.00 | 18 | 1004.7 |
| 20260503215516 | 71 | 225 | 16.0 | 22.0 | 0.00 | 0.00 | 0.00 | 19 | 1004.8 |
| 20260503215017 | 71 | 225 | 14.0 | 20.0 | 0.00 | 0.00 | 0.00 | 18 | 1004.8 |
| 20260503214516 | 72 | 225 | 15.0 | 21.0 | 0.00 | 0.00 | 0.00 | 18 | 1004.9 |
| 20260503214016 | 72 | 225 | 13.0 | 18.0 | 0.00 | 0.00 | 0.00 | 18 | 1005.1 |
| 20260503213517 | 72 | 225 | 13.0 | 21.0 | 0.00 | 0.00 | 0.00 | 17 | 1005.1 |
| 20260503213017 | 72 | 225 | 8.0 | 13.0 | 0.00 | 0.00 | 0.00 | 16 | 1005.3 |
| 20260503212536 | 73 | 225 | 10.0 | 13.0 | 0.00 | 0.00 | 0.00 | 16 | 1005.5 |
| 20260503212017 | 73 | 225 | 12.0 | 17.0 | 0.00 | 0.00 | 0.00 | 16 | 1005.5 |
| 20260503211517 | 74 | 225 | 12.0 | 20.0 | 0.00 | 0.00 | 0.00 | 16 | 1005.6 |
| 20260503211016 | 73 | 202 | 5.0 | 13.0 | 0.00 | 0.00 | 0.00 | 14 | 1005.7 |
| 20260503210517 | 73 | 180 | 3.0 | 8.0 | 0.00 | 0.00 | 0.00 | 14 | 1005.7 |
| 20260503210018 | 73 | 112 | 3.0 | 7.0 | 0.00 | 0.00 | 0.00 | 14 | 1005.7 |
| 20260503205537 | 72 | 112 | 4.0 | 7.0 | 0.00 | 0.00 | 0.00 | 14 | 1005.5 |
| 20260503205116 | 72 | 157 | 2.0 | 4.0 | 0.00 | 0.00 | 0.00 | 13 | 1005.8 |
| 20260503204516 | 72 | 67 | 2.0 | 4.0 | 0.00 | 0.00 | 0.00 | 13 | 1005.9 |
| 20260503204016 | 73 | 337 | 2.0 | 7.0 | 0.00 | 0.00 | 0.00 | 13 | 1006.0 |
| 20260503203516 | 73 | 22 | 2.0 | 3.0 | 0.00 | 0.00 | 0.00 | 14 | 1006.0 |
| 20260503203016 | 74 | 315 | 4.0 | 9.0 | 0.00 | 0.00 | 0.00 | 13 | 1006.2 |
| 20260503202516 | 74 | 292 | 2.0 | 7.0 | 0.00 | 0.00 | 0.00 | 14 | 1006.1 |
| 20260503202016 | 74 | 247 | 3.0 | 7.0 | 0.00 | 0.00 | 0.00 | 13 | 1006.1 |
| 20260503201516 | 74 | 247 | 4.0 | 10.0 | 0.00 | 0.00 | 0.00 | 14 | 1006.3 |
| 20260503201016 | 74 | 225 | 6.0 | 10.0 | 0.00 | 0.00 | 0.00 | 13 | 1006.3 |
| 20260503200536 | 76 | 0 | 4.0 | 9.0 | 0.00 | 0.00 | 0.00 | 13 | 1006.5 |
| 20260503200017 | 75 | 270 | 4.0 | 9.0 | 0.00 | 0.00 | 0.00 | 13 | 1006.7 |
| 20260503195517 | 75 | 202 | 3.0 | 8.0 | 0.00 | 0.00 | 0.00 | 14 | 1006.7 |
| 20260503195016 | 73 | 90 | 3.0 | 6.0 | 0.00 | 0.00 | 0.00 | 14 | 1006.9 |
| 20260503194517 | 74 | 22 | 3.0 | 6.0 | 0.00 | 0.00 | 0.00 | 13 | 1007.1 |
| 20260503194017 | 75 | 270 | 5.0 | 8.0 | 0.00 | 0.00 | 0.00 | 14 | 1007.4 |
| 20260503193516 | 75 | 225 | 9.0 | 14.0 | 0.00 | 0.00 | 0.00 | 14 | 1007.3 |
| 20260503193016 | 75 | 202 | 13.0 | 19.0 | 0.00 | 0.00 | 0.00 | 14 | 1007.2 |
| 20260503192516 | 74 | 202 | 5.0 | 12.0 | 0.00 | 0.00 | 0.00 | 15 | 1007.4 |
| 20260503192016 | 74 | 180 | 10.0 | 19.0 | 0.00 | 0.00 | 0.00 | 14 | 1007.5 |
| 20260503191517 | 74 | 202 | 11.0 | 17.0 | 0.00 | 0.00 | 0.00 | 14 | 1007.6 |
| 20260503191016 | 74 | 225 | 8.0 | 16.0 | 0.00 | 0.00 | 0.00 | 15 | 1007.6 |
| 20260503190517 | 73 | 202 | 7.0 | 12.0 | 0.00 | 0.00 | 0.00 | 15 | 1007.7 |
| 20260503190016 | 73 | 225 | 7.0 | 12.0 | 0.00 | 0.00 | 0.00 | 14 | 1007.9 |
| 20260503185517 | 73 | 225 | 8.0 | 14.0 | 0.00 | 0.00 | 0.00 | 16 | 1007.9 |
| 20260503185017 | 74 | 180 | 9.0 | 14.0 | 0.00 | 0.00 | 0.00 | 16 | 1008.0 |
| 20260503184516 | 73 | 225 | 8.0 | 12.0 | 0.00 | 0.00 | 0.00 | 16 | 1008.2 |
| 20260503184036 | 73 | 202 | 8.0 | 13.0 | 0.00 | 0.00 | 0.00 | 16 | 1008.3 |
| 20260503183517 | 72 | 180 | 6.0 | 11.0 | 0.00 | 0.00 | 0.00 | 16 | 1008.5 |
| 20260503183016 | 72 | 202 | 9.0 | 13.0 | 0.00 | 0.00 | 0.00 | 16 | 1008.6 |
| 20260503182516 | 72 | 225 | 7.0 | 10.0 | 0.00 | 0.00 | 0.00 | 16 | 1008.7 |
| 20260503182016 | 71 | 180 | 8.0 | 16.0 | 0.00 | 0.00 | 0.00 | 15 | 1008.6 |
| 20260503181516 | 72 | 202 | 11.0 | 17.0 | 0.00 | 0.00 | 0.00 | 15 | 1008.7 |
| 20260503181016 | 73 | 202 | 9.0 | 15.0 | 0.00 | 0.00 | 0.00 | 16 | 1008.8 |
| 20260503180517 | 72 | 202 | 9.0 | 13.0 | 0.00 | 0.00 | 0.00 | 16 | 1008.9 |
| 20260503180036 | 71 | 202 | 9.0 | 13.0 | 0.00 | 0.00 | 0.00 | 17 | 1008.9 |
| 20260503175516 | 71 | 202 | 9.0 | 14.0 | 0.00 | 0.00 | 0.00 | 17 | 1009.0 |
| 20260503175016 | 71 | 225 | 11.0 | 17.0 | 0.00 | 0.00 | 0.00 | 16 | 1009.1 |
| 20260503174516 | 71 | 225 | 13.0 | 18.0 | 0.00 | 0.00 | 0.00 | 16 | 1009.1 |
| 20260503174016 | 71 | 225 | 13.0 | 19.0 | 0.00 | 0.00 | 0.00 | 16 | 1009.2 |
| 20260503173516 | 71 | 225 | 15.0 | 20.0 | 0.00 | 0.00 | 0.00 | 16 | 1009.2 |
| 20260503173016 | 72 | 225 | 14.0 | 19.0 | 0.00 | 0.00 | 0.00 | 15 | 1009.2 |
| 20260503172516 | 71 | 225 | 16.0 | 24.0 | 0.00 | 0.00 | 0.00 | 16 | 1009.2 |
| 20260503172016 | 71 | 225 | 16.0 | 25.0 | 0.00 | 0.00 | 0.00 | 16 | 1009.1 |
| 20260503171516 | 71 | 225 | 16.0 | 21.0 | 0.00 | 0.00 | 0.00 | 16 | 1009.1 |
| 20260503171016 | 72 | 225 | 13.0 | 18.0 | 0.00 | 0.00 | 0.00 | 16 | 1009.2 |
| 20260503170516 | 71 | 202 | 14.0 | 20.0 | 0.00 | 0.00 | 0.00 | 16 | 1009.3 |
| 20260503150516 | 70 | 247 | 12.0 | 19.0 | 0.00 | 0.00 | 0.00 | 17 | 1010.0 |
| 20260503131016 | 60 | 180 | 4.0 | 6.0 | 0.00 | 0.00 | 0.00 | 26 | 1011.8 |
| 20260503130538 | 60 | 180 | 5.0 | 10.0 | 0.00 | 0.00 | 0.00 | 25 | 1011.9 |
| 20260503110517 | 52 | 202 | 3.0 | 6.0 | 0.00 | 0.00 | 0.00 | 31 | 1011.6 |